THORAD AGENA D DEB, 42522

Orbit data source: Space-Track

THORAD AGENA D DEB, 42522 is space debris in SSO originally from a launch on Wed, 08 Apr 1970 UTC launched from the Air Force Western Test Range (AFWTR). Debris objects in space refer to the collection of defunct objects orbiting the Earth. Examples of debris include non-operational satellites, rocket bodies, and fragments generated from explosions, collisions, or faulty payload assembly.

Loading next visibility...
Identifier
42522, 1970-025SC
Orbit
SSO
Country
Flag of USUS
Related business
Manufacturer
Unknown
Mission
Spacecraft
Bus & Motor
Unknown
Mass
Unknown
Launch date (UTC)
1970-04-08 (56 years ago)
Launch vehicle
Unknown
Launch site
Air Force Western Test Range (AFWTR)
Object type
Payload
Rocket body
Debris
Shape & HBR
Unknown shape, 0.1 m
Radar Cross Section
Small (<0.1 m²)

Expand to show TLE details & history
Last TLE update: 5 hours ago

TLE from 5 hours ago
0 THORAD AGENA D DEB
1 42522U 70025SC  26034.24532358  .00000513  00000-0  69569-3 0  9993
2 42522  99.6441 140.5044 0029925 309.2354  50.6134 13.64308418606651
Epoch: 2026-02-03T05:53Z
TLE epoch observation values (Epoch: 2026-02-03T05:53:15.957Z)
Latitude
0.00007°
Longitude
-81.24112°
Altitude
1,008.871 km
Speed
7.354 km/s
True Right ascension
09h 22m 01s
True Declination
0° 00' 00"
Sunlit
Object was in full shadow at epoch
Visualization orbit readout
Latitude
Unknown
Longitude
Unknown
Altitude
Unknown
Speed
Unknown
Apparent Right ascension
Unknown
Apparent Declination
Unknown
Sunlit
N/A
Visualization observer readout
Local Sidereal Time
13:16:38
Azimuth
Unknown
Elevation
Unknown
Doppler factor
Unknown
Orbital elements
Apogee altitude
1,039.486 km
Perigee altitude
995.224 km
Semi-major axis
7,395.492 km
Eccentricity
0.00299
Inclination
99.6441°
RAAN
140.5044°
Arg. of periapsis
309.2354°
True anomaly
50.87906°
Mean anomaly
50.6134°
Eccentric anomaly
50.74617°
Mean motion
3.41266 °/min
Orbital period
105.49 mins
BSTAR
0.00069569
Loading maneuver chart data...
Computing Atmospheric mass density...

Documentation

Showing up to 5 results
|